Regional Weather Roundup
Issued by NWS

Home | Current Version | Previous Version | Graphics & Text | Print | Product List | Glossary On
Versions: 1 2 3 4 5 6 7 8 9 10 11 12 13 14 15 16 17 18 19 20 21 22 23 24 25 26 27 28 29 30 31 32 33 34 35 36 37 38 39 40 41 42 43 44 45 46 47 48 49 50
000
ASUS43 KMKX 270311
RWRWI

WISCONSIN REGIONAL WEATHER ROUNDUP
NATIONAL WEATHER SERVICE MILWAUKEE/SULLIVAN WI
900 PM CST FRI DEC 26 2014

NOTE: "FAIR" INDICATES FEW OR NO CLOUDS BELOW 12,000 FEET WITH NO
SIGNIFICANT WEATHER AND/OR OBSTRUCTIONS TO VISIBILITY.

WIZ001-002-006>008-014>016-023>028-270400-
NORTHWEST WISCONSIN

CITY           SKY/WX    TMP DP  RH WIND       PRES   REMARKS
SUPERIOR ARPT  CLOUDY    29  21  71 N7        30.12S WCI  22
ASHLAND        CLOUDY    30  26  85 CALM      30.09S
HAYWARD        LGT SNOW  29  25  85 CALM      30.07R FOG
SIREN          LGT SNOW  28  26  91 CALM      30.09F
CUMBERLAND     LGT SNOW  28  27  93 N6        30.06F WCI  22
RICE LAKE      LGT SNOW  30  28  93 N6        30.07F WCI  24
CHETEK         LGT SNOW  30  29  95 N7        30.05F WCI  23
LADYSMITH      LGT SNOW  31  29  95 N5        30.06S WCI  26
EAU CLAIRE     CLOUDY    32  28  85 N7        30.03F WCI  26
MENOMONIE      MIX PCPN  32  30  93 N7        30.04F WCI  26
NEW RICHMOND   LGT SNOW  29  28  99 N10       30.06F WCI  19
OSCEOLA        LGT SNOW  29  29 100 N5        30.11F WCI  24
$$

WIZ003>005-009-010-017-018-270400-
NORTH CENTRAL WISCONSIN

CITY           SKY/WX    TMP DP  RH WIND       PRES   REMARKS
MANITOWISH WTR CLOUDY    29  29 100 N3        30.03R
ARBOR VITAE    CLOUDY    32  30  94 CALM      30.03R
WOODRUFF       CLOUDY    32  30  94 CALM      30.03R
RHINELANDER    LGT SNOW  29  28  96 NE3       30.02R FOG
EAGLE RIVER    LGT SNOW  29  29 100 CALM      30.02R
LAND O LAKES   CLOUDY    31  30  96 CALM      30.03R
PHILLIPS       LGT SNOW  29  28  96 N5        30.03R WCI  24
TOMAHAWK       CLOUDY    30  28  93 CALM      30.03R
MEDFORD        CLOUDY    31  29  92 NE6       30.01S WCI  25
MERRILL        CLOUDY    32  32  99 NE3       30.02S FOG
$$

WIZ029-030-035-036-043>047-270400-
CENTRAL WISCONSIN

CITY           SKY/WX    TMP DP  RH WIND       PRES   REMARKS
WAUSAU         CLOUDY    34  32  92 CALM      30.00R FOG
MOSINEE        CLOUDY    34  34 100 E5        30.02R FOG     WCI  30
MARSHFIELD     CLOUDY    34  32  92 NE3       30.00S FOG
STEVENS POINT  CLOUDY    31  31  99 CALM      30.02R FOG
WAUPACA        CLOUDY    34  33  96 CALM      30.03S FOG
WAUTOMA        CLOUDY    33  33 100 NE6       30.02S FOG     WCI  27
WISC RAPIDS    CLOUDY    34  30  85 E6        30.02S WCI  29
CAMP DOUGLAS   CLOUDY    35  35 100 VRB3      30.00F
$$

WIZ011>013-019>022-031-037>040-048>050-270400-
NORTHEAST WISCONSIN

CITY           SKY/WX    TMP DP  RH WIND       PRES   REMARKS
ANTIGO         CLOUDY    31  31 100 NE8       30.01S FOG     WCI  24
SHAWANO        FOG       35  34  96 NE3       30.04R VSB<1/4
OCONTO         CLOUDY    34  34 100 CALM      30.04S
STURGEON BAY   CLOUDY    36  34  93 CALM      30.05R
GREEN BAY      CLOUDY    35  33  92 MISG      30.03S FOG
MANITOWOC      CLOUDY    35  34  96 CALM      30.03S
APPLETON       CLOUDY    34  34 100 NE6       30.01F FOG     WCI  29
CLINTONVILLE   FOG       32  32 100 CALM      30.03S VSB 1/2
OSHKOSH        MOCLDY    35  32  88 NE5       30.01S FOG     WCI  31
$$

WIZ032>034-041-042-053>061-270400-
SOUTHWEST WISCONSIN

CITY           SKY/WX    TMP DP  RH WIND       PRES   REMARKS
LA CROSSE      LGT SNOW  33  32  96 NW6       30.02S FOG     WCI  28
SPARTA         LGT RAIN  35  32  89 N5        30.02S WCI  31
VIROQUA        CLOUDY    35  35 100 CALM      29.98S
BOSCOBEL       PTCLDY    30  27  88 CALM      29.99F FOG
PRAIRIE DU CHI PTCLDY    31  29  92 CALM      29.98F
PLATTEVILLE    CLOUDY    38  35  89 E7        29.97F WCI  33
$$

WIZ056-057-062-063-064-067-068-270400-
SOUTH CENTRAL WISCONSIN

CITY           SKY/WX    TMP DP  RH WIND       PRES   REMARKS
REEDSBURG      PTCLDY    31  31  96 CALM      29.99S
BARABOO/DELLS  PTCLDY    32  30  94 CALM      29.99S
LONE ROCK      PTCLDY    33  27  78 CALM      30.00S
MINERAL POINT  PTCLDY    37  36  93 CALM      29.98S
MADISON        CLOUDY    32  30  92 CALM      29.99F
MIDDLETON      PTCLDY    33  33  99 CALM      30.01R
WATERTOWN      CLOUDY    37  36  98 CALM      30.00S
MONROE         MOCLDY    41  36  81 SE6       29.98F
JANESVILLE     PTCLDY    39  36  87 CALM      29.99F
$$

WIZ051-052-058>065-066-070>072-270400-
SOUTHEAST WISCONSIN

CITY           SKY/WX    TMP DP  RH WIND       PRES   REMARKS
MILWAUKEE      MOCLDY    39  34  82 CALM      30.01R
WAUKESHA       MOCLDY    36  34  93 CALM      30.02R
MILWAUKEE/TIMM CLOUDY    39  34  81 CALM      30.02S
RACINE         CLOUDY    41  36  82 S3        30.03R
BURLINGTON     PTCLDY    33  32  97 CALM      30.02R
KENOSHA        CLOUDY    42  37  82 S3        30.02R
FOND DU LAC    MOCLDY    34  31  88 CALM      30.01S FOG
SHEBOYGAN      PTCLDY    32  30  92 CALM      30.01F
WEST BEND      CLOUDY    32  32 100 CALM      30.01S
JUNEAU         PTCLDY    35  33  92 CALM      30.02S
$$

LSZ147-162-270400-
LAKE SUPERIOR

STATION/POSITION TIME  TEMP    WIND        PRES    WAVE
                       AIR SEA DIR/SP/G            HT/PER
                 (UTC) (F)     (DEG/KT/KT) (MB)    (FT/S)
DEVILS ISLAND    0300   31     350/ 14/ 16 1020.0R
PORT WING        0200   32     360/ 12/ 13 1019.6
SAXON HARBOR     0200   33     350/  3/  4 1018.6S
$$

LMZ867-665-643>646-270400-
LAKE MICHIGAN

STATION/POSITION TIME  TEMP    WIND        PRES    WAVE
                       AIR SEA DIR/SP/G            HT/PER
                 (UTC) (F)     (DEG/KT/KT) (MB)    (FT/S)
CHAMBERS ISLAND  0240   35      30/  8/ 10 1017.3F
NORTHPORT PIER   0200   35      10/  4/  5 1017.3S
SISTER BAY       0213           40/  2/  6   N/A
ALGOMA LAKESHORE 0115           60/  5/  7   N/A
KEWAUNEE LAKESHO 0200   36      30/  6/  8 1015.8F
SHEBOYGAN LAKESH 0300   41 39  310/  1/  1 1017.1F
PORT WASHINGTON  0240   36     270/  2/  3 1017.3S
MILWAUKEE LAKESH 0200   39      80/  1/  2   N/A
KENOSHA   LAKESH 0300   44     190/  5/  6 1016.6R
$$

TC  - TEMPERATURE IN CELSIUS
VSB - VISIBILITY IN STATUTE MILES
WCI - WIND CHILL INDEX
HX  - HEAT INDEX




USA.gov is the U.S. government's official web portal to all federal, state and local government web resources and services.